Index of /20260504/WXO-DD/model_rdps/10km/00/070
Name Last modified Size Description
Parent Directory -
20260504T00Z_MSC_RDPS_AbsoluteVorticity_IsbL-0250_RLatLon0.09_PT070H.grib2 2026-05-04 03:02 602K
20260504T00Z_MSC_RDPS_AbsoluteVorticity_IsbL-0500_RLatLon0.09_PT070H.grib2 2026-05-04 03:02 558K
20260504T00Z_MSC_RDPS_AbsoluteVorticity_IsbL-0700_RLatLon0.09_PT070H.grib2 2026-05-04 03:02 615K
20260504T00Z_MSC_RDPS_AbsoluteVorticity_IsbL-0850_RLatLon0.09_PT070H.grib2 2026-05-04 03:02 782K
20260504T00Z_MSC_RDPS_AirTemp_AGL-120m_RLatLon0.09_PT070H.grib2 2026-05-04 03:02 391K
20260504T00Z_MSC_RDPS_AirTemp_AGL-2m_RLatLon0.09_PT070H.grib2 2026-05-04 03:02 624K
20260504T00Z_MSC_RDPS_AirTemp_AGL-40m_RLatLon0.09_PT070H.grib2 2026-05-04 03:02 399K
20260504T00Z_MSC_RDPS_AirTemp_AGL-80m_RLatLon0.09_PT070H.grib2 2026-05-04 03:02 395K
20260504T00Z_MSC_RDPS_AirTemp_IsbL-0001_RLatLon0.09_PT070H.grib2 2026-05-04 03:02 312K
20260504T00Z_MSC_RDPS_AirTemp_IsbL-0005_RLatLon0.09_PT070H.grib2 2026-05-04 03:02 291K
20260504T00Z_MSC_RDPS_AirTemp_IsbL-0010_RLatLon0.09_PT070H.grib2 2026-05-04 03:02 393K
20260504T00Z_MSC_RDPS_AirTemp_IsbL-0020_RLatLon0.09_PT070H.grib2 2026-05-04 03:02 322K
20260504T00Z_MSC_RDPS_AirTemp_IsbL-0030_RLatLon0.09_PT070H.grib2 2026-05-04 03:02 338K
20260504T00Z_MSC_RDPS_AirTemp_IsbL-0050_RLatLon0.09_PT070H.grib2 2026-05-04 03:02 313K
20260504T00Z_MSC_RDPS_AirTemp_IsbL-0100_RLatLon0.09_PT070H.grib2 2026-05-04 03:02 418K
20260504T00Z_MSC_RDPS_AirTemp_IsbL-0150_RLatLon0.09_PT070H.grib2 2026-05-04 03:02 409K
20260504T00Z_MSC_RDPS_AirTemp_IsbL-0175_RLatLon0.09_PT070H.grib2 2026-05-04 03:02 405K
20260504T00Z_MSC_RDPS_AirTemp_IsbL-0200_RLatLon0.09_PT070H.grib2 2026-05-04 03:02 412K
20260504T00Z_MSC_RDPS_AirTemp_IsbL-0225_RLatLon0.09_PT070H.grib2 2026-05-04 03:02 416K
20260504T00Z_MSC_RDPS_AirTemp_IsbL-0250_RLatLon0.09_PT070H.grib2 2026-05-04 03:02 421K
20260504T00Z_MSC_RDPS_AirTemp_IsbL-0275_RLatLon0.09_PT070H.grib2 2026-05-04 03:02 400K
20260504T00Z_MSC_RDPS_AirTemp_IsbL-0300_RLatLon0.09_PT070H.grib2 2026-05-04 03:02 408K
20260504T00Z_MSC_RDPS_AirTemp_IsbL-0350_RLatLon0.09_PT070H.grib2 2026-05-04 03:02 425K
20260504T00Z_MSC_RDPS_AirTemp_IsbL-0400_RLatLon0.09_PT070H.grib2 2026-05-04 03:02 428K
20260504T00Z_MSC_RDPS_AirTemp_IsbL-0450_RLatLon0.09_PT070H.grib2 2026-05-04 03:02 434K
20260504T00Z_MSC_RDPS_AirTemp_IsbL-0500_RLatLon0.09_PT070H.grib2 2026-05-04 03:02 443K
20260504T00Z_MSC_RDPS_AirTemp_IsbL-0550_RLatLon0.09_PT070H.grib2 2026-05-04 03:02 461K
20260504T00Z_MSC_RDPS_AirTemp_IsbL-0600_RLatLon0.09_PT070H.grib2 2026-05-04 03:02 443K
20260504T00Z_MSC_RDPS_AirTemp_IsbL-0650_RLatLon0.09_PT070H.grib2 2026-05-04 03:02 459K
20260504T00Z_MSC_RDPS_AirTemp_IsbL-0700_RLatLon0.09_PT070H.grib2 2026-05-04 03:02 377K
20260504T00Z_MSC_RDPS_AirTemp_IsbL-0750_RLatLon0.09_PT070H.grib2 2026-05-04 03:02 409K
20260504T00Z_MSC_RDPS_AirTemp_IsbL-0800_RLatLon0.09_PT070H.grib2 2026-05-04 03:02 453K
20260504T00Z_MSC_RDPS_AirTemp_IsbL-0850_RLatLon0.09_PT070H.grib2 2026-05-04 03:02 503K
20260504T00Z_MSC_RDPS_AirTemp_IsbL-0875_RLatLon0.09_PT070H.grib2 2026-05-04 03:02 523K
20260504T00Z_MSC_RDPS_AirTemp_IsbL-0900_RLatLon0.09_PT070H.grib2 2026-05-04 03:02 531K
20260504T00Z_MSC_RDPS_AirTemp_IsbL-0925_RLatLon0.09_PT070H.grib2 2026-05-04 03:02 529K
20260504T00Z_MSC_RDPS_AirTemp_IsbL-0950_RLatLon0.09_PT070H.grib2 2026-05-04 03:02 523K
20260504T00Z_MSC_RDPS_AirTemp_IsbL-0970_RLatLon0.09_PT070H.grib2 2026-05-04 03:02 518K
20260504T00Z_MSC_RDPS_AirTemp_IsbL-0985_RLatLon0.09_PT070H.grib2 2026-05-04 03:02 509K
20260504T00Z_MSC_RDPS_AirTemp_IsbL-1000_RLatLon0.09_PT070H.grib2 2026-05-04 03:02 505K
20260504T00Z_MSC_RDPS_AirTemp_IsbL-1015_RLatLon0.09_PT070H.grib2 2026-05-04 03:02 507K
20260504T00Z_MSC_RDPS_Albedo_Sfc_RLatLon0.09_PT070H.grib2 2026-05-04 03:02 155K
20260504T00Z_MSC_RDPS_CAPE_Sfc_RLatLon0.09_PT070H.grib2 2026-05-04 03:02 1.8M
20260504T00Z_MSC_RDPS_CIN_Sfc_RLatLon0.09_PT070H.grib2 2026-05-04 03:02 1.3M
20260504T00Z_MSC_RDPS_CloudWater_EAtm_RLatLon0.09_PT070H.grib2 2026-05-04 03:02 224K
20260504T00Z_MSC_RDPS_ConvectivePrecip-Accum_Sfc_RLatLon0.09_PT070H.grib2 2026-05-04 03:02 1.2M
20260504T00Z_MSC_RDPS_DewPointDepression_AGL-2m_RLatLon0.09_PT070H.grib2 2026-05-04 03:02 421K
20260504T00Z_MSC_RDPS_DewPointDepression_IsbL-0001_RLatLon0.09_PT070H.grib2 2026-05-04 03:02 193
20260504T00Z_MSC_RDPS_DewPointDepression_IsbL-0005_RLatLon0.09_PT070H.grib2 2026-05-04 03:02 193
20260504T00Z_MSC_RDPS_DewPointDepression_IsbL-0010_RLatLon0.09_PT070H.grib2 2026-05-04 03:02 193
20260504T00Z_MSC_RDPS_DewPointDepression_IsbL-0020_RLatLon0.09_PT070H.grib2 2026-05-04 03:02 193
20260504T00Z_MSC_RDPS_DewPointDepression_IsbL-0030_RLatLon0.09_PT070H.grib2 2026-05-04 03:02 193
20260504T00Z_MSC_RDPS_DewPointDepression_IsbL-0050_RLatLon0.09_PT070H.grib2 2026-05-04 03:02 77K
20260504T00Z_MSC_RDPS_DewPointDepression_IsbL-0100_RLatLon0.09_PT070H.grib2 2026-05-04 03:02 113K
20260504T00Z_MSC_RDPS_DewPointDepression_IsbL-0150_RLatLon0.09_PT070H.grib2 2026-05-04 03:02 141K
20260504T00Z_MSC_RDPS_DewPointDepression_IsbL-0175_RLatLon0.09_PT070H.grib2 2026-05-04 03:02 190K
20260504T00Z_MSC_RDPS_DewPointDepression_IsbL-0200_RLatLon0.09_PT070H.grib2 2026-05-04 03:02 231K
20260504T00Z_MSC_RDPS_DewPointDepression_IsbL-0225_RLatLon0.09_PT070H.grib2 2026-05-04 03:02 263K
20260504T00Z_MSC_RDPS_DewPointDepression_IsbL-0250_RLatLon0.09_PT070H.grib2 2026-05-04 03:02 302K
20260504T00Z_MSC_RDPS_DewPointDepression_IsbL-0275_RLatLon0.09_PT070H.grib2 2026-05-04 03:02 311K
20260504T00Z_MSC_RDPS_DewPointDepression_IsbL-0300_RLatLon0.09_PT070H.grib2 2026-05-04 03:02 330K
20260504T00Z_MSC_RDPS_DewPointDepression_IsbL-0350_RLatLon0.09_PT070H.grib2 2026-05-04 03:02 337K
20260504T00Z_MSC_RDPS_DewPointDepression_IsbL-0400_RLatLon0.09_PT070H.grib2 2026-05-04 03:02 347K
20260504T00Z_MSC_RDPS_DewPointDepression_IsbL-0450_RLatLon0.09_PT070H.grib2 2026-05-04 03:02 350K
20260504T00Z_MSC_RDPS_DewPointDepression_IsbL-0500_RLatLon0.09_PT070H.grib2 2026-05-04 03:02 352K
20260504T00Z_MSC_RDPS_DewPointDepression_IsbL-0550_RLatLon0.09_PT070H.grib2 2026-05-04 03:02 364K
20260504T00Z_MSC_RDPS_DewPointDepression_IsbL-0600_RLatLon0.09_PT070H.grib2 2026-05-04 03:02 373K
20260504T00Z_MSC_RDPS_DewPointDepression_IsbL-0650_RLatLon0.09_PT070H.grib2 2026-05-04 03:02 379K
20260504T00Z_MSC_RDPS_DewPointDepression_IsbL-0700_RLatLon0.09_PT070H.grib2 2026-05-04 03:02 390K
20260504T00Z_MSC_RDPS_DewPointDepression_IsbL-0750_RLatLon0.09_PT070H.grib2 2026-05-04 03:02 410K
20260504T00Z_MSC_RDPS_DewPointDepression_IsbL-0800_RLatLon0.09_PT070H.grib2 2026-05-04 03:02 450K
20260504T00Z_MSC_RDPS_DewPointDepression_IsbL-0850_RLatLon0.09_PT070H.grib2 2026-05-04 03:02 484K
20260504T00Z_MSC_RDPS_DewPointDepression_IsbL-0875_RLatLon0.09_PT070H.grib2 2026-05-04 03:02 483K
20260504T00Z_MSC_RDPS_DewPointDepression_IsbL-0900_RLatLon0.09_PT070H.grib2 2026-05-04 03:02 473K
20260504T00Z_MSC_RDPS_DewPointDepression_IsbL-0925_RLatLon0.09_PT070H.grib2 2026-05-04 03:02 460K
20260504T00Z_MSC_RDPS_DewPointDepression_IsbL-0950_RLatLon0.09_PT070H.grib2 2026-05-04 03:02 444K
20260504T00Z_MSC_RDPS_DewPointDepression_IsbL-0970_RLatLon0.09_PT070H.grib2 2026-05-04 03:02 435K
20260504T00Z_MSC_RDPS_DewPointDepression_IsbL-0985_RLatLon0.09_PT070H.grib2 2026-05-04 03:02 433K
20260504T00Z_MSC_RDPS_DewPointDepression_IsbL-1000_RLatLon0.09_PT070H.grib2 2026-05-04 03:02 430K
20260504T00Z_MSC_RDPS_DewPointDepression_IsbL-1015_RLatLon0.09_PT070H.grib2 2026-05-04 03:02 420K
20260504T00Z_MSC_RDPS_DewPoint_AGL-2m_RLatLon0.09_PT070H.grib2 2026-05-04 03:02 397K
20260504T00Z_MSC_RDPS_DownwardLongwaveRadiationFlux-Accum_Sfc_RLatLon0.09_PT070H.grib2 2026-05-04 03:02 426K
20260504T00Z_MSC_RDPS_DownwardShortwaveRadiationFlux-Accum_NTAtm_RLatLon0.09_PT070H.grib2 2026-05-04 03:02 136K
20260504T00Z_MSC_RDPS_DownwardShortwaveRadiationFlux-Accum_Sfc_RLatLon0.09_PT070H.grib2 2026-05-04 03:02 628K
20260504T00Z_MSC_RDPS_FreezingRain-Accum1h_Sfc_RLatLon0.09_PT070H.grib2 2026-05-04 03:02 17K
20260504T00Z_MSC_RDPS_FreezingRain-Accum_Sfc_RLatLon0.09_PT070H.grib2 2026-05-04 03:02 203K
20260504T00Z_MSC_RDPS_GeopotentialHeight_IsbL-0001_RLatLon0.09_PT070H.grib2 2026-05-04 03:02 344K
20260504T00Z_MSC_RDPS_GeopotentialHeight_IsbL-0005_RLatLon0.09_PT070H.grib2 2026-05-04 03:02 339K
20260504T00Z_MSC_RDPS_GeopotentialHeight_IsbL-0010_RLatLon0.09_PT070H.grib2 2026-05-04 03:02 307K
20260504T00Z_MSC_RDPS_GeopotentialHeight_IsbL-0020_RLatLon0.09_PT070H.grib2 2026-05-04 03:02 307K
20260504T00Z_MSC_RDPS_GeopotentialHeight_IsbL-0030_RLatLon0.09_PT070H.grib2 2026-05-04 03:02 405K
20260504T00Z_MSC_RDPS_GeopotentialHeight_IsbL-0050_RLatLon0.09_PT070H.grib2 2026-05-04 03:02 309K
20260504T00Z_MSC_RDPS_GeopotentialHeight_IsbL-0100_RLatLon0.09_PT070H.grib2 2026-05-04 03:02 287K
20260504T00Z_MSC_RDPS_GeopotentialHeight_IsbL-0150_RLatLon0.09_PT070H.grib2 2026-05-04 03:02 229K
20260504T00Z_MSC_RDPS_GeopotentialHeight_IsbL-0175_RLatLon0.09_PT070H.grib2 2026-05-04 03:02 232K
20260504T00Z_MSC_RDPS_GeopotentialHeight_IsbL-0200_RLatLon0.09_PT070H.grib2 2026-05-04 03:02 235K
20260504T00Z_MSC_RDPS_GeopotentialHeight_IsbL-0225_RLatLon0.09_PT070H.grib2 2026-05-04 03:02 238K
20260504T00Z_MSC_RDPS_GeopotentialHeight_IsbL-0250_RLatLon0.09_PT070H.grib2 2026-05-04 03:02 238K
20260504T00Z_MSC_RDPS_GeopotentialHeight_IsbL-0275_RLatLon0.09_PT070H.grib2 2026-05-04 03:02 238K
20260504T00Z_MSC_RDPS_GeopotentialHeight_IsbL-0300_RLatLon0.09_PT070H.grib2 2026-05-04 03:02 237K
20260504T00Z_MSC_RDPS_GeopotentialHeight_IsbL-0350_RLatLon0.09_PT070H.grib2 2026-05-04 03:02 234K
20260504T00Z_MSC_RDPS_GeopotentialHeight_IsbL-0400_RLatLon0.09_PT070H.grib2 2026-05-04 03:02 229K
20260504T00Z_MSC_RDPS_GeopotentialHeight_IsbL-0450_RLatLon0.09_PT070H.grib2 2026-05-04 03:02 297K
20260504T00Z_MSC_RDPS_GeopotentialHeight_IsbL-0500_RLatLon0.09_PT070H.grib2 2026-05-04 03:02 292K
20260504T00Z_MSC_RDPS_GeopotentialHeight_IsbL-0550_RLatLon0.09_PT070H.grib2 2026-05-04 03:02 289K
20260504T00Z_MSC_RDPS_GeopotentialHeight_IsbL-0600_RLatLon0.09_PT070H.grib2 2026-05-04 03:02 287K
20260504T00Z_MSC_RDPS_GeopotentialHeight_IsbL-0650_RLatLon0.09_PT070H.grib2 2026-05-04 03:02 256K
20260504T00Z_MSC_RDPS_GeopotentialHeight_IsbL-0700_RLatLon0.09_PT070H.grib2 2026-05-04 03:02 337K
20260504T00Z_MSC_RDPS_GeopotentialHeight_IsbL-0750_RLatLon0.09_PT070H.grib2 2026-05-04 03:02 339K
20260504T00Z_MSC_RDPS_GeopotentialHeight_IsbL-0800_RLatLon0.09_PT070H.grib2 2026-05-04 03:02 346K
20260504T00Z_MSC_RDPS_GeopotentialHeight_IsbL-0850_RLatLon0.09_PT070H.grib2 2026-05-04 03:02 388K
20260504T00Z_MSC_RDPS_GeopotentialHeight_IsbL-0875_RLatLon0.09_PT070H.grib2 2026-05-04 03:02 391K
20260504T00Z_MSC_RDPS_GeopotentialHeight_IsbL-0900_RLatLon0.09_PT070H.grib2 2026-05-04 03:02 395K
20260504T00Z_MSC_RDPS_GeopotentialHeight_IsbL-0925_RLatLon0.09_PT070H.grib2 2026-05-04 03:02 399K
20260504T00Z_MSC_RDPS_GeopotentialHeight_IsbL-0950_RLatLon0.09_PT070H.grib2 2026-05-04 03:02 369K
20260504T00Z_MSC_RDPS_GeopotentialHeight_IsbL-0970_RLatLon0.09_PT070H.grib2 2026-05-04 03:02 372K
20260504T00Z_MSC_RDPS_GeopotentialHeight_IsbL-0985_RLatLon0.09_PT070H.grib2 2026-05-04 03:02 382K
20260504T00Z_MSC_RDPS_GeopotentialHeight_IsbL-1000_RLatLon0.09_PT070H.grib2 2026-05-04 03:02 394K
20260504T00Z_MSC_RDPS_GeopotentialHeight_IsbL-1015_RLatLon0.09_PT070H.grib2 2026-05-04 03:02 409K
20260504T00Z_MSC_RDPS_Humidex_Sfc_RLatLon0.09_PT070H.grib2 2026-05-04 03:02 2.4M
20260504T00Z_MSC_RDPS_IcePellets-Accum1h_Sfc_RLatLon0.09_PT070H.grib2 2026-05-04 03:02 7.7K
20260504T00Z_MSC_RDPS_IcePellets-Accum_Sfc_RLatLon0.09_PT070H.grib2 2026-05-04 03:02 48K
20260504T00Z_MSC_RDPS_KIndex_Sfc_RLatLon0.09_PT070H.grib2 2026-05-04 03:02 2.5M
20260504T00Z_MSC_RDPS_LatentHeatNetFlux_Sfc_RLatLon0.09_PT070H.grib2 2026-05-04 03:02 299K
20260504T00Z_MSC_RDPS_LiftedIndex-MU-VT_IsbL-0500_RLatLon0.09_PT070H.grib2 2026-05-04 03:02 2.4M
20260504T00Z_MSC_RDPS_NetLongwaveRadiationFlux-Accum_Sfc_RLatLon0.09_PT070H.grib2 2026-05-04 03:02 609K
20260504T00Z_MSC_RDPS_NetShortwaveRadiationFlux-Accum_Sfc_RLatLon0.09_PT070H.grib2 2026-05-04 03:02 625K
20260504T00Z_MSC_RDPS_PlanetaryBoundaryLayerHeight_Sfc_RLatLon0.09_PT070H.grib2 2026-05-04 03:02 1.0M
20260504T00Z_MSC_RDPS_Precip-Accum1h_Sfc_RLatLon0.09_PT070H.grib2 2026-05-04 03:02 1.2M
20260504T00Z_MSC_RDPS_Precip-Accum_Sfc_RLatLon0.09_PT070H.grib2 2026-05-04 03:02 2.2M
20260504T00Z_MSC_RDPS_PrecipRate_Sfc_RLatLon0.09_PT070H.grib2 2026-05-04 03:02 178K
20260504T00Z_MSC_RDPS_PrecipType-Instant_Sfc_RLatLon0.09_PT070H.grib2 2026-05-04 03:02 580K
20260504T00Z_MSC_RDPS_Pressure-Trend3h_Sfc_RLatLon0.09_PT070H.grib2 2026-05-04 03:02 1.2M
20260504T00Z_MSC_RDPS_Pressure_MSL_RLatLon0.09_PT070H.grib2 2026-05-04 03:02 295K
20260504T00Z_MSC_RDPS_Pressure_PVU-1.5_RLatLon0.09_PT070H.grib2 2026-05-04 03:02 2.3M
20260504T00Z_MSC_RDPS_Pressure_PVU-1_RLatLon0.09_PT070H.grib2 2026-05-04 03:02 2.4M
20260504T00Z_MSC_RDPS_Pressure_PVU-2_RLatLon0.09_PT070H.grib2 2026-05-04 03:02 2.4M
20260504T00Z_MSC_RDPS_Pressure_Sfc_RLatLon0.09_PT070H.grib2 2026-05-04 03:02 498K
20260504T00Z_MSC_RDPS_RadiativeTemp_Sfc_RLatLon0.09_PT070H.grib2 2026-05-04 03:02 322K
20260504T00Z_MSC_RDPS_Rain-Accum1h_Sfc_RLatLon0.09_PT070H.grib2 2026-05-04 03:02 552K
20260504T00Z_MSC_RDPS_Rain-Accum_Sfc_RLatLon0.09_PT070H.grib2 2026-05-04 03:02 1.8M
20260504T00Z_MSC_RDPS_RelativeHumidity_AGL-2m_RLatLon0.09_PT070H.grib2 2026-05-04 03:02 1.0M
20260504T00Z_MSC_RDPS_RelativeHumidity_IsbL-0010_RLatLon0.09_PT070H.grib2 2026-05-04 03:02 679K
20260504T00Z_MSC_RDPS_RelativeHumidity_IsbL-0020_RLatLon0.09_PT070H.grib2 2026-05-04 03:02 641K
20260504T00Z_MSC_RDPS_RelativeHumidity_IsbL-0030_RLatLon0.09_PT070H.grib2 2026-05-04 03:02 598K
20260504T00Z_MSC_RDPS_RelativeHumidity_IsbL-0050_RLatLon0.09_PT070H.grib2 2026-05-04 03:02 358K
20260504T00Z_MSC_RDPS_RelativeHumidity_IsbL-0100_RLatLon0.09_PT070H.grib2 2026-05-04 03:02 273K
20260504T00Z_MSC_RDPS_RelativeHumidity_IsbL-0150_RLatLon0.09_PT070H.grib2 2026-05-04 03:02 417K
20260504T00Z_MSC_RDPS_RelativeHumidity_IsbL-0175_RLatLon0.09_PT070H.grib2 2026-05-04 03:02 479K
20260504T00Z_MSC_RDPS_RelativeHumidity_IsbL-0200_RLatLon0.09_PT070H.grib2 2026-05-04 03:02 556K
20260504T00Z_MSC_RDPS_RelativeHumidity_IsbL-0225_RLatLon0.09_PT070H.grib2 2026-05-04 03:02 624K
20260504T00Z_MSC_RDPS_RelativeHumidity_IsbL-0250_RLatLon0.09_PT070H.grib2 2026-05-04 03:02 686K
20260504T00Z_MSC_RDPS_RelativeHumidity_IsbL-0275_RLatLon0.09_PT070H.grib2 2026-05-04 03:02 709K
20260504T00Z_MSC_RDPS_RelativeHumidity_IsbL-0300_RLatLon0.09_PT070H.grib2 2026-05-04 03:02 756K
20260504T00Z_MSC_RDPS_RelativeHumidity_IsbL-0350_RLatLon0.09_PT070H.grib2 2026-05-04 03:02 783K
20260504T00Z_MSC_RDPS_RelativeHumidity_IsbL-0400_RLatLon0.09_PT070H.grib2 2026-05-04 03:02 800K
20260504T00Z_MSC_RDPS_RelativeHumidity_IsbL-0450_RLatLon0.09_PT070H.grib2 2026-05-04 03:02 801K
20260504T00Z_MSC_RDPS_RelativeHumidity_IsbL-0500_RLatLon0.09_PT070H.grib2 2026-05-04 03:02 800K
20260504T00Z_MSC_RDPS_RelativeHumidity_IsbL-0550_RLatLon0.09_PT070H.grib2 2026-05-04 03:02 818K
20260504T00Z_MSC_RDPS_RelativeHumidity_IsbL-0600_RLatLon0.09_PT070H.grib2 2026-05-04 03:02 845K
20260504T00Z_MSC_RDPS_RelativeHumidity_IsbL-0650_RLatLon0.09_PT070H.grib2 2026-05-04 03:02 858K
20260504T00Z_MSC_RDPS_RelativeHumidity_IsbL-0700_RLatLon0.09_PT070H.grib2 2026-05-04 03:02 873K
20260504T00Z_MSC_RDPS_RelativeHumidity_IsbL-0750_RLatLon0.09_PT070H.grib2 2026-05-04 03:02 915K
20260504T00Z_MSC_RDPS_RelativeHumidity_IsbL-0800_RLatLon0.09_PT070H.grib2 2026-05-04 03:02 1.0M
20260504T00Z_MSC_RDPS_RelativeHumidity_IsbL-0850_RLatLon0.09_PT070H.grib2 2026-05-04 03:02 1.0M
20260504T00Z_MSC_RDPS_RelativeHumidity_IsbL-0875_RLatLon0.09_PT070H.grib2 2026-05-04 03:02 1.1M
20260504T00Z_MSC_RDPS_RelativeHumidity_IsbL-0900_RLatLon0.09_PT070H.grib2 2026-05-04 03:02 1.1M
20260504T00Z_MSC_RDPS_RelativeHumidity_IsbL-0925_RLatLon0.09_PT070H.grib2 2026-05-04 03:02 1.1M
20260504T00Z_MSC_RDPS_RelativeHumidity_IsbL-0950_RLatLon0.09_PT070H.grib2 2026-05-04 03:02 1.1M
20260504T00Z_MSC_RDPS_RelativeHumidity_IsbL-0970_RLatLon0.09_PT070H.grib2 2026-05-04 03:02 1.0M
20260504T00Z_MSC_RDPS_RelativeHumidity_IsbL-0985_RLatLon0.09_PT070H.grib2 2026-05-04 03:02 1.0M
20260504T00Z_MSC_RDPS_RelativeHumidity_IsbL-1000_RLatLon0.09_PT070H.grib2 2026-05-04 03:02 1.0M
20260504T00Z_MSC_RDPS_RelativeHumidity_IsbL-1015_RLatLon0.09_PT070H.grib2 2026-05-04 03:02 1.0M
20260504T00Z_MSC_RDPS_Runoff-Accum_Sfc_RLatLon0.09_PT070H.grib2 2026-05-04 03:02 66K
20260504T00Z_MSC_RDPS_SWEATIndex_Sfc_RLatLon0.09_PT070H.grib2 2026-05-04 03:02 2.4M
20260504T00Z_MSC_RDPS_SeeingIndex_EAtm_RLatLon0.09_PT070H.grib2 2026-05-04 03:02 1.0M
20260504T00Z_MSC_RDPS_SensibleHeatNetFlux_Sfc_RLatLon0.09_PT070H.grib2 2026-05-04 03:02 345K
20260504T00Z_MSC_RDPS_ShowalterIndex_IsbL-0500_RLatLon0.09_PT070H.grib2 2026-05-04 03:02 2.6M
20260504T00Z_MSC_RDPS_SkyTransparencyIndex_EAtm_RLatLon0.09_PT070H.grib2 2026-05-04 03:02 714K
20260504T00Z_MSC_RDPS_Snow-Accum1h_Sfc_RLatLon0.09_PT070H.grib2 2026-05-04 03:02 442K
20260504T00Z_MSC_RDPS_Snow-Accum_Sfc_RLatLon0.09_PT070H.grib2 2026-05-04 03:02 788K
20260504T00Z_MSC_RDPS_SnowDensity_Sfc_RLatLon0.09_PT070H.grib2 2026-05-04 03:02 175K
20260504T00Z_MSC_RDPS_SnowDepth_Sfc_RLatLon0.09_PT070H.grib2 2026-05-04 03:02 650K
20260504T00Z_MSC_RDPS_SoilTemp_DBS-0to10cm_RLatLon0.09_PT070H.grib2 2026-05-04 03:02 248K
20260504T00Z_MSC_RDPS_SoilTemp_Sfc_RLatLon0.09_PT070H.grib2 2026-05-04 03:02 283K
20260504T00Z_MSC_RDPS_SoilVolumetricIceContent_Sfc_RLatLon0.09_PT070H.grib2 2026-05-04 03:02 150K
20260504T00Z_MSC_RDPS_SoilVolumetricWaterContent_DBS-0to10cm_RLatLon0.09_PT070H.grib2 2026-05-04 03:02 281K
20260504T00Z_MSC_RDPS_SoilVolumetricWaterContent_DBS-0to1cm_RLatLon0.09_PT070H.grib2 2026-05-04 03:02 344K
20260504T00Z_MSC_RDPS_SpecificHumidity_AGL-120m_RLatLon0.09_PT070H.grib2 2026-05-04 03:02 498K
20260504T00Z_MSC_RDPS_SpecificHumidity_AGL-2m_RLatLon0.09_PT070H.grib2 2026-05-04 03:02 668K
20260504T00Z_MSC_RDPS_SpecificHumidity_AGL-40m_RLatLon0.09_PT070H.grib2 2026-05-04 03:02 502K
20260504T00Z_MSC_RDPS_SpecificHumidity_AGL-80m_RLatLon0.09_PT070H.grib2 2026-05-04 03:02 499K
20260504T00Z_MSC_RDPS_SpecificHumidity_IsbL-0001_RLatLon0.09_PT070H.grib2 2026-05-04 03:02 380K
20260504T00Z_MSC_RDPS_SpecificHumidity_IsbL-0005_RLatLon0.09_PT070H.grib2 2026-05-04 03:02 365K
20260504T00Z_MSC_RDPS_SpecificHumidity_IsbL-0010_RLatLon0.09_PT070H.grib2 2026-05-04 03:02 399K
20260504T00Z_MSC_RDPS_SpecificHumidity_IsbL-0020_RLatLon0.09_PT070H.grib2 2026-05-04 03:02 374K
20260504T00Z_MSC_RDPS_SpecificHumidity_IsbL-0030_RLatLon0.09_PT070H.grib2 2026-05-04 03:02 363K
20260504T00Z_MSC_RDPS_SpecificHumidity_IsbL-0050_RLatLon0.09_PT070H.grib2 2026-05-04 03:02 471K
20260504T00Z_MSC_RDPS_SpecificHumidity_IsbL-0100_RLatLon0.09_PT070H.grib2 2026-05-04 03:02 443K
20260504T00Z_MSC_RDPS_SpecificHumidity_IsbL-0150_RLatLon0.09_PT070H.grib2 2026-05-04 03:02 464K
20260504T00Z_MSC_RDPS_SpecificHumidity_IsbL-0175_RLatLon0.09_PT070H.grib2 2026-05-04 03:02 450K
20260504T00Z_MSC_RDPS_SpecificHumidity_IsbL-0200_RLatLon0.09_PT070H.grib2 2026-05-04 03:02 478K
20260504T00Z_MSC_RDPS_SpecificHumidity_IsbL-0225_RLatLon0.09_PT070H.grib2 2026-05-04 03:02 460K
20260504T00Z_MSC_RDPS_SpecificHumidity_IsbL-0250_RLatLon0.09_PT070H.grib2 2026-05-04 03:02 561K
20260504T00Z_MSC_RDPS_SpecificHumidity_IsbL-0275_RLatLon0.09_PT070H.grib2 2026-05-04 03:02 475K
20260504T00Z_MSC_RDPS_SpecificHumidity_IsbL-0300_RLatLon0.09_PT070H.grib2 2026-05-04 03:02 549K
20260504T00Z_MSC_RDPS_SpecificHumidity_IsbL-0350_RLatLon0.09_PT070H.grib2 2026-05-04 03:02 571K
20260504T00Z_MSC_RDPS_SpecificHumidity_IsbL-0400_RLatLon0.09_PT070H.grib2 2026-05-04 03:02 529K
20260504T00Z_MSC_RDPS_SpecificHumidity_IsbL-0450_RLatLon0.09_PT070H.grib2 2026-05-04 03:02 577K
20260504T00Z_MSC_RDPS_SpecificHumidity_IsbL-0500_RLatLon0.09_PT070H.grib2 2026-05-04 03:02 508K
20260504T00Z_MSC_RDPS_SpecificHumidity_IsbL-0550_RLatLon0.09_PT070H.grib2 2026-05-04 03:02 582K
20260504T00Z_MSC_RDPS_SpecificHumidity_IsbL-0600_RLatLon0.09_PT070H.grib2 2026-05-04 03:02 634K
20260504T00Z_MSC_RDPS_SpecificHumidity_IsbL-0650_RLatLon0.09_PT070H.grib2 2026-05-04 03:02 551K
20260504T00Z_MSC_RDPS_SpecificHumidity_IsbL-0700_RLatLon0.09_PT070H.grib2 2026-05-04 03:02 594K
20260504T00Z_MSC_RDPS_SpecificHumidity_IsbL-0750_RLatLon0.09_PT070H.grib2 2026-05-04 03:02 661K
20260504T00Z_MSC_RDPS_SpecificHumidity_IsbL-0800_RLatLon0.09_PT070H.grib2 2026-05-04 03:02 738K
20260504T00Z_MSC_RDPS_SpecificHumidity_IsbL-0850_RLatLon0.09_PT070H.grib2 2026-05-04 03:02 684K
20260504T00Z_MSC_RDPS_SpecificHumidity_IsbL-0875_RLatLon0.09_PT070H.grib2 2026-05-04 03:02 707K
20260504T00Z_MSC_RDPS_SpecificHumidity_IsbL-0900_RLatLon0.09_PT070H.grib2 2026-05-04 03:02 717K
20260504T00Z_MSC_RDPS_SpecificHumidity_IsbL-0925_RLatLon0.09_PT070H.grib2 2026-05-04 03:02 720K
20260504T00Z_MSC_RDPS_SpecificHumidity_IsbL-0950_RLatLon0.09_PT070H.grib2 2026-05-04 03:02 716K
20260504T00Z_MSC_RDPS_SpecificHumidity_IsbL-0970_RLatLon0.09_PT070H.grib2 2026-05-04 03:02 706K
20260504T00Z_MSC_RDPS_SpecificHumidity_IsbL-0985_RLatLon0.09_PT070H.grib2 2026-05-04 03:02 699K
20260504T00Z_MSC_RDPS_SpecificHumidity_IsbL-1000_RLatLon0.09_PT070H.grib2 2026-05-04 03:02 696K
20260504T00Z_MSC_RDPS_SpecificHumidity_IsbL-1015_RLatLon0.09_PT070H.grib2 2026-05-04 03:02 684K
20260504T00Z_MSC_RDPS_SpecificHumidity_Sfc_RLatLon0.09_PT070H.grib2 2026-05-04 03:02 344K
20260504T00Z_MSC_RDPS_StormRelativeHelicity_EtaL-10000_RLatLon0.09_PT070H.grib2 2026-05-04 03:02 1.1M
20260504T00Z_MSC_RDPS_StormSeverityIndex_EtaL-10000_RLatLon0.09_PT070H.grib2 2026-05-04 03:02 1.2M
20260504T00Z_MSC_RDPS_Thickness_IsbL-0850to0700_RLatLon0.09_PT070H.grib2 2026-05-04 03:02 177K
20260504T00Z_MSC_RDPS_Thickness_IsbL-1000to0500_RLatLon0.09_PT070H.grib2 2026-05-04 03:02 197K
20260504T00Z_MSC_RDPS_Thickness_IsbL-1000to0850_RLatLon0.09_PT070H.grib2 2026-05-04 03:02 184K
20260504T00Z_MSC_RDPS_TotalCloudCover_Sfc_RLatLon0.09_PT070H.grib2 2026-05-04 03:02 660K
20260504T00Z_MSC_RDPS_TotalTotalsIndex_Sfc_RLatLon0.09_PT070H.grib2 2026-05-04 03:02 2.4M
20260504T00Z_MSC_RDPS_UVIndex-ClearSky_Sfc_RLatLon0.09_PT070H.grib2 2026-05-04 03:02 179K
20260504T00Z_MSC_RDPS_UVIndex_Sfc_RLatLon0.09_PT070H.grib2 2026-05-04 03:02 420K
20260504T00Z_MSC_RDPS_UpwardLongwaveRadiationFlux_NTAtm_RLatLon0.09_PT070H.grib2 2026-05-04 03:02 382K
20260504T00Z_MSC_RDPS_UpwardShortwaveRadiationFlux_NTAtm_RLatLon0.09_PT070H.grib2 2026-05-04 03:02 459K
20260504T00Z_MSC_RDPS_VerticalVelocity_IsbL-0250_RLatLon0.09_PT070H.grib2 2026-05-04 03:02 581K
20260504T00Z_MSC_RDPS_VerticalVelocity_IsbL-0500_RLatLon0.09_PT070H.grib2 2026-05-04 03:02 545K
20260504T00Z_MSC_RDPS_VerticalVelocity_IsbL-0700_RLatLon0.09_PT070H.grib2 2026-05-04 03:02 595K
20260504T00Z_MSC_RDPS_VerticalVelocity_IsbL-0850_RLatLon0.09_PT070H.grib2 2026-05-04 03:02 696K
20260504T00Z_MSC_RDPS_VerticalWindShear_EtaL-6500_RLatLon0.09_PT070H.grib2 2026-05-04 03:02 1.2M
20260504T00Z_MSC_RDPS_WindChill_Sfc_RLatLon0.09_PT070H.grib2 2026-05-04 03:02 1.1M
20260504T00Z_MSC_RDPS_WindDir_AGL-10m_RLatLon0.09_PT070H.grib2 2026-05-04 03:02 950K
20260504T00Z_MSC_RDPS_WindDir_AGL-120m_RLatLon0.09_PT070H.grib2 2026-05-04 03:02 600K
20260504T00Z_MSC_RDPS_WindDir_AGL-40m_RLatLon0.09_PT070H.grib2 2026-05-04 03:02 620K
20260504T00Z_MSC_RDPS_WindDir_AGL-80m_RLatLon0.09_PT070H.grib2 2026-05-04 03:02 608K
20260504T00Z_MSC_RDPS_WindDir_IsbL-0001_RLatLon0.09_PT070H.grib2 2026-05-04 03:02 309K
20260504T00Z_MSC_RDPS_WindDir_IsbL-0005_RLatLon0.09_PT070H.grib2 2026-05-04 03:02 371K
20260504T00Z_MSC_RDPS_WindDir_IsbL-0010_RLatLon0.09_PT070H.grib2 2026-05-04 03:02 383K
20260504T00Z_MSC_RDPS_WindDir_IsbL-0020_RLatLon0.09_PT070H.grib2 2026-05-04 03:02 397K
20260504T00Z_MSC_RDPS_WindDir_IsbL-0030_RLatLon0.09_PT070H.grib2 2026-05-04 03:02 396K
20260504T00Z_MSC_RDPS_WindDir_IsbL-0050_RLatLon0.09_PT070H.grib2 2026-05-04 03:02 416K
20260504T00Z_MSC_RDPS_WindDir_IsbL-0100_RLatLon0.09_PT070H.grib2 2026-05-04 03:02 411K
20260504T00Z_MSC_RDPS_WindDir_IsbL-0150_RLatLon0.09_PT070H.grib2 2026-05-04 03:02 416K
20260504T00Z_MSC_RDPS_WindDir_IsbL-0175_RLatLon0.09_PT070H.grib2 2026-05-04 03:02 439K
20260504T00Z_MSC_RDPS_WindDir_IsbL-0200_RLatLon0.09_PT070H.grib2 2026-05-04 03:02 455K
20260504T00Z_MSC_RDPS_WindDir_IsbL-0225_RLatLon0.09_PT070H.grib2 2026-05-04 03:02 462K
20260504T00Z_MSC_RDPS_WindDir_IsbL-0250_RLatLon0.09_PT070H.grib2 2026-05-04 03:02 454K
20260504T00Z_MSC_RDPS_WindDir_IsbL-0275_RLatLon0.09_PT070H.grib2 2026-05-04 03:02 469K
20260504T00Z_MSC_RDPS_WindDir_IsbL-0300_RLatLon0.09_PT070H.grib2 2026-05-04 03:02 468K
20260504T00Z_MSC_RDPS_WindDir_IsbL-0350_RLatLon0.09_PT070H.grib2 2026-05-04 03:02 495K
20260504T00Z_MSC_RDPS_WindDir_IsbL-0400_RLatLon0.09_PT070H.grib2 2026-05-04 03:02 517K
20260504T00Z_MSC_RDPS_WindDir_IsbL-0450_RLatLon0.09_PT070H.grib2 2026-05-04 03:02 536K
20260504T00Z_MSC_RDPS_WindDir_IsbL-0500_RLatLon0.09_PT070H.grib2 2026-05-04 03:02 544K
20260504T00Z_MSC_RDPS_WindDir_IsbL-0550_RLatLon0.09_PT070H.grib2 2026-05-04 03:02 558K
20260504T00Z_MSC_RDPS_WindDir_IsbL-0600_RLatLon0.09_PT070H.grib2 2026-05-04 03:02 590K
20260504T00Z_MSC_RDPS_WindDir_IsbL-0650_RLatLon0.09_PT070H.grib2 2026-05-04 03:02 633K
20260504T00Z_MSC_RDPS_WindDir_IsbL-0700_RLatLon0.09_PT070H.grib2 2026-05-04 03:02 674K
20260504T00Z_MSC_RDPS_WindDir_IsbL-0750_RLatLon0.09_PT070H.grib2 2026-05-04 03:02 718K
20260504T00Z_MSC_RDPS_WindDir_IsbL-0800_RLatLon0.09_PT070H.grib2 2026-05-04 03:02 785K
20260504T00Z_MSC_RDPS_WindDir_IsbL-0850_RLatLon0.09_PT070H.grib2 2026-05-04 03:02 858K
20260504T00Z_MSC_RDPS_WindDir_IsbL-0875_RLatLon0.09_PT070H.grib2 2026-05-04 03:02 883K
20260504T00Z_MSC_RDPS_WindDir_IsbL-0900_RLatLon0.09_PT070H.grib2 2026-05-04 03:02 897K
20260504T00Z_MSC_RDPS_WindDir_IsbL-0925_RLatLon0.09_PT070H.grib2 2026-05-04 03:02 906K
20260504T00Z_MSC_RDPS_WindDir_IsbL-0950_RLatLon0.09_PT070H.grib2 2026-05-04 03:02 905K
20260504T00Z_MSC_RDPS_WindDir_IsbL-0970_RLatLon0.09_PT070H.grib2 2026-05-04 03:02 907K
20260504T00Z_MSC_RDPS_WindDir_IsbL-0985_RLatLon0.09_PT070H.grib2 2026-05-04 03:02 916K
20260504T00Z_MSC_RDPS_WindDir_IsbL-1000_RLatLon0.09_PT070H.grib2 2026-05-04 03:02 928K
20260504T00Z_MSC_RDPS_WindDir_IsbL-1015_RLatLon0.09_PT070H.grib2 2026-05-04 03:02 942K
20260504T00Z_MSC_RDPS_WindGust-Max_AGL-10m_RLatLon0.09_PT070H.grib2 2026-05-04 03:02 945K
20260504T00Z_MSC_RDPS_WindGust-Min_AGL-10m_RLatLon0.09_PT070H.grib2 2026-05-04 03:02 1.0M
20260504T00Z_MSC_RDPS_WindGust_AGL-10m_RLatLon0.09_PT070H.grib2 2026-05-04 03:02 1.0M
20260504T00Z_MSC_RDPS_WindSpeed_AGL-10m_RLatLon0.09_PT070H.grib2 2026-05-04 03:02 837K
20260504T00Z_MSC_RDPS_WindSpeed_AGL-120m_RLatLon0.09_PT070H.grib2 2026-05-04 03:02 531K
20260504T00Z_MSC_RDPS_WindSpeed_AGL-40m_RLatLon0.09_PT070H.grib2 2026-05-04 03:02 537K
20260504T00Z_MSC_RDPS_WindSpeed_AGL-80m_RLatLon0.09_PT070H.grib2 2026-05-04 03:02 533K
20260504T00Z_MSC_RDPS_WindSpeed_IsbL-0001_RLatLon0.09_PT070H.grib2 2026-05-04 03:02 336K
20260504T00Z_MSC_RDPS_WindSpeed_IsbL-0005_RLatLon0.09_PT070H.grib2 2026-05-04 03:02 381K
20260504T00Z_MSC_RDPS_WindSpeed_IsbL-0010_RLatLon0.09_PT070H.grib2 2026-05-04 03:02 399K
20260504T00Z_MSC_RDPS_WindSpeed_IsbL-0020_RLatLon0.09_PT070H.grib2 2026-05-04 03:02 420K
20260504T00Z_MSC_RDPS_WindSpeed_IsbL-0030_RLatLon0.09_PT070H.grib2 2026-05-04 03:02 320K
20260504T00Z_MSC_RDPS_WindSpeed_IsbL-0050_RLatLon0.09_PT070H.grib2 2026-05-04 03:02 347K
20260504T00Z_MSC_RDPS_WindSpeed_IsbL-0100_RLatLon0.09_PT070H.grib2 2026-05-04 03:02 433K
20260504T00Z_MSC_RDPS_WindSpeed_IsbL-0150_RLatLon0.09_PT070H.grib2 2026-05-04 03:02 398K
20260504T00Z_MSC_RDPS_WindSpeed_IsbL-0175_RLatLon0.09_PT070H.grib2 2026-05-04 03:02 424K
20260504T00Z_MSC_RDPS_WindSpeed_IsbL-0200_RLatLon0.09_PT070H.grib2 2026-05-04 03:02 441K
20260504T00Z_MSC_RDPS_WindSpeed_IsbL-0225_RLatLon0.09_PT070H.grib2 2026-05-04 03:02 446K
20260504T00Z_MSC_RDPS_WindSpeed_IsbL-0250_RLatLon0.09_PT070H.grib2 2026-05-04 03:02 446K
20260504T00Z_MSC_RDPS_WindSpeed_IsbL-0275_RLatLon0.09_PT070H.grib2 2026-05-04 03:02 464K
20260504T00Z_MSC_RDPS_WindSpeed_IsbL-0300_RLatLon0.09_PT070H.grib2 2026-05-04 03:02 463K
20260504T00Z_MSC_RDPS_WindSpeed_IsbL-0350_RLatLon0.09_PT070H.grib2 2026-05-04 03:02 478K
20260504T00Z_MSC_RDPS_WindSpeed_IsbL-0400_RLatLon0.09_PT070H.grib2 2026-05-04 03:02 466K
20260504T00Z_MSC_RDPS_WindSpeed_IsbL-0450_RLatLon0.09_PT070H.grib2 2026-05-04 03:02 463K
20260504T00Z_MSC_RDPS_WindSpeed_IsbL-0500_RLatLon0.09_PT070H.grib2 2026-05-04 03:02 579K
20260504T00Z_MSC_RDPS_WindSpeed_IsbL-0550_RLatLon0.09_PT070H.grib2 2026-05-04 03:02 580K
20260504T00Z_MSC_RDPS_WindSpeed_IsbL-0600_RLatLon0.09_PT070H.grib2 2026-05-04 03:02 589K
20260504T00Z_MSC_RDPS_WindSpeed_IsbL-0650_RLatLon0.09_PT070H.grib2 2026-05-04 03:02 653K
20260504T00Z_MSC_RDPS_WindSpeed_IsbL-0700_RLatLon0.09_PT070H.grib2 2026-05-04 03:02 677K
20260504T00Z_MSC_RDPS_WindSpeed_IsbL-0750_RLatLon0.09_PT070H.grib2 2026-05-04 03:02 706K
20260504T00Z_MSC_RDPS_WindSpeed_IsbL-0800_RLatLon0.09_PT070H.grib2 2026-05-04 03:02 754K
20260504T00Z_MSC_RDPS_WindSpeed_IsbL-0850_RLatLon0.09_PT070H.grib2 2026-05-04 03:02 817K
20260504T00Z_MSC_RDPS_WindSpeed_IsbL-0875_RLatLon0.09_PT070H.grib2 2026-05-04 03:02 839K
20260504T00Z_MSC_RDPS_WindSpeed_IsbL-0900_RLatLon0.09_PT070H.grib2 2026-05-04 03:02 807K
20260504T00Z_MSC_RDPS_WindSpeed_IsbL-0925_RLatLon0.09_PT070H.grib2 2026-05-04 03:02 818K
20260504T00Z_MSC_RDPS_WindSpeed_IsbL-0950_RLatLon0.09_PT070H.grib2 2026-05-04 03:02 863K
20260504T00Z_MSC_RDPS_WindSpeed_IsbL-0970_RLatLon0.09_PT070H.grib2 2026-05-04 03:02 862K
20260504T00Z_MSC_RDPS_WindSpeed_IsbL-0985_RLatLon0.09_PT070H.grib2 2026-05-04 03:02 858K
20260504T00Z_MSC_RDPS_WindSpeed_IsbL-1000_RLatLon0.09_PT070H.grib2 2026-05-04 03:02 847K
20260504T00Z_MSC_RDPS_WindSpeed_IsbL-1015_RLatLon0.09_PT070H.grib2 2026-05-04 03:02 837K
20260504T00Z_MSC_RDPS_WindU_AGL-10m_RLatLon0.09_PT070H.grib2 2026-05-04 03:02 433K
20260504T00Z_MSC_RDPS_WindU_AGL-120m_RLatLon0.09_PT070H.grib2 2026-05-04 03:02 414K
20260504T00Z_MSC_RDPS_WindU_AGL-40m_RLatLon0.09_PT070H.grib2 2026-05-04 03:02 535K
20260504T00Z_MSC_RDPS_WindU_AGL-80m_RLatLon0.09_PT070H.grib2 2026-05-04 03:02 416K
20260504T00Z_MSC_RDPS_WindU_IsbL-0001_RLatLon0.09_PT070H.grib2 2026-05-04 03:02 243K
20260504T00Z_MSC_RDPS_WindU_IsbL-0005_RLatLon0.09_PT070H.grib2 2026-05-04 03:02 285K
20260504T00Z_MSC_RDPS_WindU_IsbL-0010_RLatLon0.09_PT070H.grib2 2026-05-04 03:02 300K
20260504T00Z_MSC_RDPS_WindU_IsbL-0020_RLatLon0.09_PT070H.grib2 2026-05-04 03:02 317K
20260504T00Z_MSC_RDPS_WindU_IsbL-0030_RLatLon0.09_PT070H.grib2 2026-05-04 03:02 352K
20260504T00Z_MSC_RDPS_WindU_IsbL-0050_RLatLon0.09_PT070H.grib2 2026-05-04 03:02 379K
20260504T00Z_MSC_RDPS_WindU_IsbL-0100_RLatLon0.09_PT070H.grib2 2026-05-04 03:02 331K
20260504T00Z_MSC_RDPS_WindU_IsbL-0150_RLatLon0.09_PT070H.grib2 2026-05-04 03:02 393K
20260504T00Z_MSC_RDPS_WindU_IsbL-0175_RLatLon0.09_PT070H.grib2 2026-05-04 03:02 416K
20260504T00Z_MSC_RDPS_WindU_IsbL-0200_RLatLon0.09_PT070H.grib2 2026-05-04 03:02 336K
20260504T00Z_MSC_RDPS_WindU_IsbL-0225_RLatLon0.09_PT070H.grib2 2026-05-04 03:02 339K
20260504T00Z_MSC_RDPS_WindU_IsbL-0250_RLatLon0.09_PT070H.grib2 2026-05-04 03:02 338K
20260504T00Z_MSC_RDPS_WindU_IsbL-0275_RLatLon0.09_PT070H.grib2 2026-05-04 03:02 352K
20260504T00Z_MSC_RDPS_WindU_IsbL-0300_RLatLon0.09_PT070H.grib2 2026-05-04 03:02 350K
20260504T00Z_MSC_RDPS_WindU_IsbL-0350_RLatLon0.09_PT070H.grib2 2026-05-04 03:02 362K
20260504T00Z_MSC_RDPS_WindU_IsbL-0400_RLatLon0.09_PT070H.grib2 2026-05-04 03:02 469K
20260504T00Z_MSC_RDPS_WindU_IsbL-0450_RLatLon0.09_PT070H.grib2 2026-05-04 03:02 468K
20260504T00Z_MSC_RDPS_WindU_IsbL-0500_RLatLon0.09_PT070H.grib2 2026-05-04 03:02 467K
20260504T00Z_MSC_RDPS_WindU_IsbL-0550_RLatLon0.09_PT070H.grib2 2026-05-04 03:02 469K
20260504T00Z_MSC_RDPS_WindU_IsbL-0600_RLatLon0.09_PT070H.grib2 2026-05-04 03:02 478K
20260504T00Z_MSC_RDPS_WindU_IsbL-0650_RLatLon0.09_PT070H.grib2 2026-05-04 03:02 496K
20260504T00Z_MSC_RDPS_WindU_IsbL-0700_RLatLon0.09_PT070H.grib2 2026-05-04 03:02 502K
20260504T00Z_MSC_RDPS_WindU_IsbL-0750_RLatLon0.09_PT070H.grib2 2026-05-04 03:02 528K
20260504T00Z_MSC_RDPS_WindU_IsbL-0800_RLatLon0.09_PT070H.grib2 2026-05-04 03:02 569K
20260504T00Z_MSC_RDPS_WindU_IsbL-0850_RLatLon0.09_PT070H.grib2 2026-05-04 03:02 632K
20260504T00Z_MSC_RDPS_WindU_IsbL-0875_RLatLon0.09_PT070H.grib2 2026-05-04 03:02 650K
20260504T00Z_MSC_RDPS_WindU_IsbL-0900_RLatLon0.09_PT070H.grib2 2026-05-04 03:02 661K
20260504T00Z_MSC_RDPS_WindU_IsbL-0925_RLatLon0.09_PT070H.grib2 2026-05-04 03:02 668K
20260504T00Z_MSC_RDPS_WindU_IsbL-0950_RLatLon0.09_PT070H.grib2 2026-05-04 03:02 663K
20260504T00Z_MSC_RDPS_WindU_IsbL-0970_RLatLon0.09_PT070H.grib2 2026-05-04 03:02 653K
20260504T00Z_MSC_RDPS_WindU_IsbL-0985_RLatLon0.09_PT070H.grib2 2026-05-04 03:02 651K
20260504T00Z_MSC_RDPS_WindU_IsbL-1000_RLatLon0.09_PT070H.grib2 2026-05-04 03:02 647K
20260504T00Z_MSC_RDPS_WindU_IsbL-1015_RLatLon0.09_PT070H.grib2 2026-05-04 03:02 779K
20260504T00Z_MSC_RDPS_WindV_AGL-10m_RLatLon0.09_PT070H.grib2 2026-05-04 03:02 430K
20260504T00Z_MSC_RDPS_WindV_AGL-120m_RLatLon0.09_PT070H.grib2 2026-05-04 03:02 528K
20260504T00Z_MSC_RDPS_WindV_AGL-40m_RLatLon0.09_PT070H.grib2 2026-05-04 03:02 531K
20260504T00Z_MSC_RDPS_WindV_AGL-80m_RLatLon0.09_PT070H.grib2 2026-05-04 03:02 528K
20260504T00Z_MSC_RDPS_WindV_IsbL-0001_RLatLon0.09_PT070H.grib2 2026-05-04 03:02 247K
20260504T00Z_MSC_RDPS_WindV_IsbL-0005_RLatLon0.09_PT070H.grib2 2026-05-04 03:02 287K
20260504T00Z_MSC_RDPS_WindV_IsbL-0010_RLatLon0.09_PT070H.grib2 2026-05-04 03:02 301K
20260504T00Z_MSC_RDPS_WindV_IsbL-0020_RLatLon0.09_PT070H.grib2 2026-05-04 03:02 319K
20260504T00Z_MSC_RDPS_WindV_IsbL-0030_RLatLon0.09_PT070H.grib2 2026-05-04 03:02 316K
20260504T00Z_MSC_RDPS_WindV_IsbL-0050_RLatLon0.09_PT070H.grib2 2026-05-04 03:02 342K
20260504T00Z_MSC_RDPS_WindV_IsbL-0100_RLatLon0.09_PT070H.grib2 2026-05-04 03:02 327K
20260504T00Z_MSC_RDPS_WindV_IsbL-0150_RLatLon0.09_PT070H.grib2 2026-05-04 03:02 388K
20260504T00Z_MSC_RDPS_WindV_IsbL-0175_RLatLon0.09_PT070H.grib2 2026-05-04 03:02 414K
20260504T00Z_MSC_RDPS_WindV_IsbL-0200_RLatLon0.09_PT070H.grib2 2026-05-04 03:02 432K
20260504T00Z_MSC_RDPS_WindV_IsbL-0225_RLatLon0.09_PT070H.grib2 2026-05-04 03:02 435K
20260504T00Z_MSC_RDPS_WindV_IsbL-0250_RLatLon0.09_PT070H.grib2 2026-05-04 03:02 337K
20260504T00Z_MSC_RDPS_WindV_IsbL-0275_RLatLon0.09_PT070H.grib2 2026-05-04 03:02 352K
20260504T00Z_MSC_RDPS_WindV_IsbL-0300_RLatLon0.09_PT070H.grib2 2026-05-04 03:02 350K
20260504T00Z_MSC_RDPS_WindV_IsbL-0350_RLatLon0.09_PT070H.grib2 2026-05-04 03:02 361K
20260504T00Z_MSC_RDPS_WindV_IsbL-0400_RLatLon0.09_PT070H.grib2 2026-05-04 03:02 365K
20260504T00Z_MSC_RDPS_WindV_IsbL-0450_RLatLon0.09_PT070H.grib2 2026-05-04 03:02 363K
20260504T00Z_MSC_RDPS_WindV_IsbL-0500_RLatLon0.09_PT070H.grib2 2026-05-04 03:02 464K
20260504T00Z_MSC_RDPS_WindV_IsbL-0550_RLatLon0.09_PT070H.grib2 2026-05-04 03:02 465K
20260504T00Z_MSC_RDPS_WindV_IsbL-0600_RLatLon0.09_PT070H.grib2 2026-05-04 03:02 475K
20260504T00Z_MSC_RDPS_WindV_IsbL-0650_RLatLon0.09_PT070H.grib2 2026-05-04 03:02 493K
20260504T00Z_MSC_RDPS_WindV_IsbL-0700_RLatLon0.09_PT070H.grib2 2026-05-04 03:02 512K
20260504T00Z_MSC_RDPS_WindV_IsbL-0750_RLatLon0.09_PT070H.grib2 2026-05-04 03:02 523K
20260504T00Z_MSC_RDPS_WindV_IsbL-0800_RLatLon0.09_PT070H.grib2 2026-05-04 03:02 564K
20260504T00Z_MSC_RDPS_WindV_IsbL-0850_RLatLon0.09_PT070H.grib2 2026-05-04 03:02 618K
20260504T00Z_MSC_RDPS_WindV_IsbL-0875_RLatLon0.09_PT070H.grib2 2026-05-04 03:02 637K
20260504T00Z_MSC_RDPS_WindV_IsbL-0900_RLatLon0.09_PT070H.grib2 2026-05-04 03:02 649K
20260504T00Z_MSC_RDPS_WindV_IsbL-0925_RLatLon0.09_PT070H.grib2 2026-05-04 03:02 658K
20260504T00Z_MSC_RDPS_WindV_IsbL-0950_RLatLon0.09_PT070H.grib2 2026-05-04 03:02 655K
20260504T00Z_MSC_RDPS_WindV_IsbL-0970_RLatLon0.09_PT070H.grib2 2026-05-04 03:02 651K
20260504T00Z_MSC_RDPS_WindV_IsbL-0985_RLatLon0.09_PT070H.grib2 2026-05-04 03:02 648K
20260504T00Z_MSC_RDPS_WindV_IsbL-1000_RLatLon0.09_PT070H.grib2 2026-05-04 03:02 781K
20260504T00Z_MSC_RDPS_WindV_IsbL-1015_RLatLon0.09_PT070H.grib2 2026-05-04 03:02 774K